Location: Unspecified
(51.0950°N, 12.9690°E)
Time: 21:30:17
(UTC+00:00)

NOSS 3-1 (A) - Pass Details

Date: 28 October 2021
Orbit: 721 x 1491 km, 63.4° (Epoch: 22 November)

Event Time Altitude Azimuth Distance (km) Brightness Sun altitude
Rises 18:31:41 0° 248° (WSW) 3,293 7.1 -26.0°
Reaches altitude 10° 18:34:02 10° 254° (WSW) 2,439 6.4 -26.3°
Maximum altitude 18:39:28 48° 329° (NNW) 1,202 4.1 -27.2°
Enters shadow 18:42:39 28° 28° (NNE) 1,804 4.7 -27.6°
